UAL1024 KIAH-MMMX

Flight info

Callsign UAL1024
Flight time 1h 56m
Altitude 38000
Route RITAA7 WWREN DCT BRO DCT MAM UJ59 TAM UT100 ENAGA ENAGA3A
Aircraft B38M/M-SDE1FGHILORVWXY/HB1

Departure

Time 2026-05-07 14:32
Airport George Bush Intercontinental Airport (KIAH)

Arrival

Time 2026-05-07 16:28
Airport Mexico City Benito Juárez International Airport (MMMX)
Time Latitude Longitude Altitude Speed Heading
2026-05-07 13:53 29.98455 -95.33896 109 ft 0 kts 78°
2026-05-07 14:17 29.98450 -95.33915 109 ft 3 kts 59°
2026-05-07 14:17 29.98436 -95.33931 109 ft 3 kts 22°
2026-05-07 14:18 29.98416 -95.33939 109 ft 3 kts 35°
2026-05-07 14:18 29.98408 -95.33954 109 ft 3 kts 82°
2026-05-07 14:18 29.98410 -95.33975 109 ft 3 kts 126°
2026-05-07 14:18 29.98426 -95.33989 106 ft 3 kts 161°
2026-05-07 14:19 29.98446 -95.33995 108 ft 3 kts 165°
2026-05-07 14:19 29.98455 -95.33998 107 ft 0 kts 165°
2026-05-07 14:24 29.98444 -95.33996 109 ft 3 kts 176°
2026-05-07 14:25 29.98421 -95.34001 109 ft 4 kts 198°
2026-05-07 14:25 29.98396 -95.34020 109 ft 5 kts 226°
2026-05-07 14:25 29.98379 -95.34066 109 ft 7 kts 261°
2026-05-07 14:25 29.98377 -95.34134 110 ft 9 kts 270°
2026-05-07 14:26 29.98377 -95.34222 110 ft 13 kts 270°
2026-05-07 14:26 29.98377 -95.34327 110 ft 14 kts 270°
2026-05-07 14:26 29.98363 -95.34429 109 ft 13 kts 244°
2026-05-07 14:26 29.98327 -95.34523 109 ft 13 kts 262°
2026-05-07 14:27 29.98325 -95.34631 109 ft 14 kts 270°
2026-05-07 14:27 29.98324 -95.34753 109 ft 16 kts 270°
2026-05-07 14:27 29.98324 -95.34878 110 ft 16 kts 270°
2026-05-07 14:27 29.98324 -95.35004 109 ft 14 kts 270°
2026-05-07 14:28 29.98324 -95.35098 109 ft 12 kts 270°
2026-05-07 14:28 29.98306 -95.35199 109 ft 14 kts 246°
2026-05-07 14:28 29.98337 -95.35295 110 ft 14 kts 328°
2026-05-07 14:28 29.98430 -95.35353 107 ft 16 kts 332°
2026-05-07 14:29 29.98531 -95.35415 107 ft 16 kts 331°
2026-05-07 14:29 29.98629 -95.35472 109 ft 16 kts 330°
2026-05-07 14:29 29.98715 -95.35527 108 ft 14 kts 331°
2026-05-07 14:29 29.98799 -95.35578 109 ft 14 kts 331°
2026-05-07 14:30 29.98832 -95.35664 110 ft 12 kts 250°
2026-05-07 14:30 29.98791 -95.35749 110 ft 11 kts 225°
2026-05-07 14:30 29.98733 -95.35753 110 ft 6 kts 154°
2026-05-07 14:30 29.98731 -95.35752 110 ft 0 kts 153°
2026-05-07 14:31 29.98581 -95.35661 110 ft 62 kts 152°
2026-05-07 14:31 29.97990 -95.35299 109 ft 128 kts 152°
2026-05-07 14:31 29.97045 -95.34700 121 ft 178 kts 149°
2026-05-07 14:32 29.95927 -95.33946 498 ft 195 kts 147°
2026-05-07 14:32 29.94786 -95.33142 1352 ft 181 kts 136°
2026-05-07 14:32 29.93909 -95.32132 2000 ft 185 kts 120°
2026-05-07 14:32 29.93140 -95.30837 2330 ft 209 kts 119°
2026-05-07 14:33 29.92257 -95.29370 2676 ft 236 kts 121°
2026-05-07 14:33 29.91266 -95.27754 3148 ft 256 kts 124°
2026-05-07 14:33 29.90204 -95.26048 3682 ft 274 kts 124°
2026-05-07 14:33 29.89066 -95.24235 4003 ft 282 kts 125°
2026-05-07 14:34 29.87923 -95.22397 4629 ft 284 kts 126°
2026-05-07 14:34 29.86767 -95.20541 4964 ft 285 kts 126°
2026-05-07 14:34 29.85618 -95.18698 5068 ft 283 kts 127°
2026-05-07 14:34 29.84470 -95.16857 5067 ft 282 kts 126°
2026-05-07 14:35 29.83326 -95.15024 5042 ft 283 kts 127°
2026-05-07 14:35 29.82071 -95.13265 5175 ft 284 kts 142°
2026-05-07 14:35 29.80515 -95.11890 6048 ft 283 kts 143°
2026-05-07 14:35 29.78944 -95.10493 6778 ft 289 kts 144°
2026-05-07 14:36 29.77274 -95.09183 7454 ft 291 kts 159°
2026-05-07 14:36 29.75329 -95.08683 8177 ft 288 kts 185°
2026-05-07 14:36 29.73405 -95.09173 8870 ft 281 kts 211°
2026-05-07 14:36 29.71798 -95.10417 9620 ft 280 kts 222°
2026-05-07 14:37 29.70246 -95.11801 10339 ft 285 kts 223°
2026-05-07 14:37 29.67747 -95.14087 10888 ft 313 kts 223°
2026-05-07 14:37 29.66019 -95.15726 11209 ft 328 kts 226°
2026-05-07 14:38 29.64339 -95.17563 11715 ft 336 kts 226°
2026-05-07 14:38 29.62643 -95.19409 12545 ft 336 kts 226°
2026-05-07 14:38 29.60932 -95.21262 13286 ft 340 kts 225°
2026-05-07 14:38 29.59153 -95.23058 14039 ft 344 kts 216°
2026-05-07 14:39 29.57029 -95.24345 14816 ft 346 kts 210°
2026-05-07 14:39 29.54874 -95.25587 15565 ft 347 kts 210°
2026-05-07 14:39 29.52709 -95.26820 16341 ft 347 kts 210°
2026-05-07 14:39 29.50543 -95.28044 17061 ft 348 kts 210°
2026-05-07 14:40 29.48367 -95.29269 17764 ft 349 kts 210°
2026-05-07 14:40 29.46184 -95.30496 18444 ft 350 kts 210°
2026-05-07 14:40 29.43988 -95.31729 18989 ft 353 kts 210°
2026-05-07 14:40 29.41773 -95.32972 19413 ft 358 kts 210°
2026-05-07 14:41 29.39509 -95.34240 19822 ft 364 kts 209°
2026-05-07 14:41 29.37232 -95.35516 20360 ft 366 kts 210°
2026-05-07 14:41 29.34931 -95.36805 20836 ft 370 kts 210°
2026-05-07 14:41 29.32610 -95.38104 21320 ft 373 kts 210°
2026-05-07 14:42 29.31063 -95.38970 21629 ft 375 kts 210°
2026-05-07 14:42 29.27906 -95.40735 22239 ft 379 kts 210°
2026-05-07 14:42 29.26329 -95.41617 22548 ft 381 kts 210°
2026-05-07 14:42 29.23934 -95.42955 23003 ft 385 kts 210°
2026-05-07 14:43 29.21518 -95.44304 23453 ft 388 kts 211°
2026-05-07 14:43 29.19083 -95.45663 23839 ft 391 kts 211°
2026-05-07 14:43 29.16632 -95.47030 24241 ft 393 kts 211°
2026-05-07 14:43 29.14168 -95.48403 24645 ft 395 kts 211°
2026-05-07 14:44 29.11691 -95.49783 25019 ft 397 kts 210°
2026-05-07 14:44 29.09199 -95.51171 25403 ft 399 kts 210°
2026-05-07 14:44 29.06695 -95.52565 25795 ft 401 kts 210°
2026-05-07 14:44 29.04176 -95.53966 26182 ft 404 kts 210°
2026-05-07 14:45 29.01646 -95.55373 26565 ft 406 kts 210°
2026-05-07 14:45 28.99101 -95.56787 26935 ft 408 kts 210°
2026-05-07 14:45 28.96545 -95.58207 27303 ft 410 kts 210°
2026-05-07 14:45 28.93976 -95.59633 27668 ft 412 kts 210°
2026-05-07 14:46 28.91389 -95.61069 28018 ft 414 kts 210°
2026-05-07 14:46 28.88862 -95.62632 28346 ft 414 kts 213°
2026-05-07 14:46 28.86340 -95.64238 28685 ft 416 kts 213°
2026-05-07 14:46 28.83800 -95.65841 29003 ft 418 kts 213°
2026-05-07 14:47 28.81246 -95.67447 29340 ft 420 kts 213°
2026-05-07 14:47 28.78681 -95.69057 29673 ft 422 kts 213°
2026-05-07 14:47 28.76100 -95.70675 29983 ft 424 kts 213°
2026-05-07 14:47 28.73503 -95.72302 30256 ft 427 kts 213°
2026-05-07 14:48 28.70893 -95.73938 30501 ft 429 kts 213°
2026-05-07 14:48 28.68281 -95.75573 30856 ft 428 kts 213°
2026-05-07 14:48 28.65674 -95.77204 31240 ft 427 kts 213°
2026-05-07 14:48 28.63076 -95.78829 31631 ft 425 kts 213°
2026-05-07 14:49 28.60486 -95.80447 32049 ft 424 kts 213°
2026-05-07 14:49 28.57907 -95.82058 32474 ft 422 kts 213°
2026-05-07 14:49 28.55336 -95.83663 32891 ft 420 kts 213°
2026-05-07 14:49 28.52777 -95.85259 33275 ft 419 kts 213°
2026-05-07 14:50 28.50227 -95.86849 33668 ft 418 kts 213°
2026-05-07 14:50 28.47715 -95.88414 34056 ft 417 kts 213°
2026-05-07 14:50 28.45178 -95.89995 34401 ft 415 kts 213°
2026-05-07 14:50 28.42650 -95.91569 34739 ft 414 kts 213°
2026-05-07 14:51 28.40123 -95.93141 35070 ft 413 kts 213°
2026-05-07 14:51 28.37613 -95.94702 35416 ft 411 kts 214°
2026-05-07 14:51 28.35108 -95.96259 35781 ft 409 kts 214°
2026-05-07 14:51 28.32617 -95.97806 36094 ft 408 kts 214°
2026-05-07 14:52 28.30133 -95.99348 36400 ft 407 kts 214°
2026-05-07 14:52 28.27655 -96.00886 36685 ft 406 kts 214°
2026-05-07 14:52 28.25184 -96.02418 36972 ft 404 kts 214°
2026-05-07 14:52 28.22715 -96.03949 37223 ft 404 kts 214°
2026-05-07 14:53 28.20247 -96.05478 37369 ft 406 kts 214°
2026-05-07 14:53 28.17771 -96.07011 37592 ft 406 kts 214°
2026-05-07 14:53 28.15295 -96.08543 37825 ft 405 kts 214°
2026-05-07 14:53 28.12810 -96.10050 37980 ft 406 kts 213°
2026-05-07 14:54 28.07808 -96.12994 37996 ft 403 kts 213°
2026-05-07 14:54 28.02835 -96.15930 37994 ft 403 kts 213°
2026-05-07 14:55 27.97864 -96.18864 37992 ft 403 kts 213°
2026-05-07 14:55 27.92889 -96.21796 37986 ft 403 kts 213°
2026-05-07 14:56 27.87884 -96.24743 37991 ft 408 kts 213°
2026-05-07 14:56 27.82844 -96.27708 37989 ft 408 kts 213°
2026-05-07 14:57 27.77811 -96.30665 37991 ft 408 kts 213°
2026-05-07 14:57 27.72775 -96.33621 37990 ft 408 kts 213°
2026-05-07 14:58 27.67770 -96.36556 37985 ft 408 kts 213°
2026-05-07 14:58 27.62726 -96.39510 37986 ft 408 kts 213°
2026-05-07 14:59 27.57688 -96.42458 37985 ft 408 kts 213°
2026-05-07 14:59 27.52646 -96.45405 37980 ft 408 kts 213°
2026-05-07 15:00 27.47605 -96.48349 37987 ft 407 kts 213°
2026-05-07 15:00 27.42593 -96.51273 37979 ft 406 kts 213°
2026-05-07 15:01 27.37578 -96.54195 37981 ft 406 kts 213°
2026-05-07 15:01 27.32562 -96.57115 37980 ft 406 kts 213°
2026-05-07 15:02 27.27528 -96.60042 37980 ft 409 kts 212°
2026-05-07 15:02 27.22467 -96.62982 37978 ft 409 kts 212°
2026-05-07 15:03 27.17407 -96.65919 37977 ft 409 kts 212°
2026-05-07 15:03 27.12344 -96.68854 37975 ft 409 kts 212°
2026-05-07 15:04 27.07284 -96.71785 37976 ft 409 kts 212°
2026-05-07 15:04 27.02221 -96.74714 37974 ft 409 kts 212°
2026-05-07 15:05 26.97158 -96.77640 37977 ft 409 kts 212°
2026-05-07 15:05 26.92094 -96.80564 37973 ft 409 kts 212°
2026-05-07 15:06 26.87030 -96.83484 37973 ft 409 kts 212°
2026-05-07 15:06 26.81996 -96.86385 37971 ft 410 kts 212°
2026-05-07 15:07 26.76915 -96.89310 37970 ft 411 kts 212°
2026-05-07 15:07 26.71831 -96.92233 37971 ft 411 kts 212°
2026-05-07 15:08 26.66743 -96.95156 37967 ft 412 kts 212°
2026-05-07 15:08 26.61641 -96.98084 37970 ft 412 kts 212°
2026-05-07 15:09 26.56539 -97.01009 37966 ft 412 kts 212°
2026-05-07 15:09 26.51437 -97.03931 37966 ft 412 kts 212°
2026-05-07 15:10 26.46332 -97.06852 37967 ft 412 kts 212°
2026-05-07 15:10 26.41227 -97.09769 37963 ft 412 kts 212°
2026-05-07 15:11 26.36122 -97.12684 37951 ft 412 kts 212°
2026-05-07 15:11 26.31018 -97.15596 37959 ft 412 kts 212°
2026-05-07 15:12 26.25911 -97.18506 37964 ft 412 kts 212°
2026-05-07 15:12 26.20808 -97.21411 37969 ft 412 kts 212°
2026-05-07 15:13 26.15703 -97.24315 37972 ft 412 kts 212°
2026-05-07 15:13 26.10597 -97.27216 37975 ft 412 kts 212°
2026-05-07 15:14 26.05491 -97.30115 37956 ft 412 kts 211°
2026-05-07 15:14 26.00415 -97.32994 37964 ft 412 kts 211°
2026-05-07 15:15 25.95307 -97.35888 37972 ft 412 kts 211°
2026-05-07 15:15 25.90619 -97.39390 37994 ft 404 kts 223°
2026-05-07 15:16 25.86326 -97.43460 37971 ft 406 kts 224°
2026-05-07 15:16 25.82059 -97.47574 37968 ft 406 kts 224°
2026-05-07 15:17 25.77566 -97.51360 37944 ft 412 kts 208°
2026-05-07 15:17 25.74811 -97.52315 37954 ft 421 kts 195°
2026-05-07 15:17 25.71892 -97.52759 37967 ft 426 kts 193°
2026-05-07 15:18 25.65969 -97.53479 37962 ft 429 kts 191°
2026-05-07 15:18 25.60028 -97.54105 37956 ft 429 kts 191°
2026-05-07 15:19 25.54086 -97.54705 37956 ft 429 kts 191°
2026-05-07 15:19 25.48137 -97.55303 37952 ft 429 kts 191°
2026-05-07 15:20 25.42191 -97.55899 37930 ft 430 kts 191°
2026-05-07 15:20 25.36218 -97.56507 37947 ft 431 kts 192°
2026-05-07 15:21 25.30265 -97.57227 37949 ft 430 kts 192°
2026-05-07 15:21 25.24314 -97.57938 37951 ft 430 kts 192°
2026-05-07 15:22 25.18395 -97.58643 37948 ft 430 kts 192°
2026-05-07 15:22 25.12442 -97.59351 37929 ft 430 kts 192°
2026-05-07 15:23 25.06428 -97.60031 37946 ft 433 kts 191°
2026-05-07 15:23 25.00468 -97.60596 37950 ft 433 kts 191°
2026-05-07 15:24 24.94471 -97.61175 37947 ft 433 kts 191°
2026-05-07 15:24 24.88476 -97.61754 37946 ft 433 kts 191°
2026-05-07 15:25 24.82477 -97.62333 37947 ft 433 kts 191°
2026-05-07 15:25 24.76469 -97.62912 37952 ft 434 kts 191°
2026-05-07 15:26 24.70447 -97.63492 37948 ft 434 kts 191°
2026-05-07 15:26 24.64426 -97.64071 37949 ft 434 kts 191°
2026-05-07 15:27 24.58406 -97.64650 37950 ft 434 kts 191°
2026-05-07 15:27 24.52389 -97.65228 37950 ft 434 kts 191°
2026-05-07 15:28 24.46368 -97.65806 37947 ft 434 kts 191°
2026-05-07 15:28 24.40346 -97.66383 37947 ft 434 kts 191°
2026-05-07 15:29 24.34322 -97.66959 37950 ft 434 kts 191°
2026-05-07 15:29 24.28299 -97.67536 37949 ft 434 kts 191°
2026-05-07 15:30 24.22280 -97.68111 37948 ft 434 kts 191°
2026-05-07 15:30 24.17274 -97.68589 37930 ft 434 kts 191°
2026-05-07 15:31 24.11247 -97.69164 37944 ft 435 kts 191°
2026-05-07 15:31 24.05214 -97.69739 37943 ft 435 kts 191°
2026-05-07 15:32 23.99182 -97.70313 37944 ft 435 kts 191°
2026-05-07 15:32 23.93148 -97.70887 37941 ft 435 kts 191°
2026-05-07 15:33 23.87118 -97.71461 37917 ft 435 kts 191°
2026-05-07 15:33 23.81072 -97.72035 37944 ft 437 kts 191°
2026-05-07 15:34 23.75055 -97.72605 37945 ft 437 kts 191°
2026-05-07 15:34 23.69000 -97.73179 37941 ft 437 kts 191°
2026-05-07 15:35 23.62946 -97.73753 37936 ft 437 kts 191°
2026-05-07 15:35 23.56896 -97.74325 37937 ft 437 kts 191°
2026-05-07 15:36 23.50833 -97.74898 37937 ft 438 kts 191°
2026-05-07 15:36 23.44754 -97.75472 37941 ft 438 kts 191°
2026-05-07 15:37 23.38675 -97.76046 37931 ft 438 kts 191°
2026-05-07 15:37 23.32599 -97.76618 37936 ft 438 kts 191°
2026-05-07 15:38 23.26522 -97.77191 37936 ft 438 kts 191°
2026-05-07 15:38 23.20440 -97.77763 37924 ft 439 kts 191°
2026-05-07 15:39 23.14335 -97.78337 37925 ft 440 kts 191°
2026-05-07 15:39 23.08231 -97.78910 37927 ft 440 kts 191°
2026-05-07 15:40 23.02129 -97.79483 37927 ft 440 kts 191°
2026-05-07 15:40 22.96026 -97.80055 37927 ft 440 kts 191°
2026-05-07 15:41 22.89923 -97.80626 37905 ft 440 kts 191°
2026-05-07 15:41 22.83845 -97.81195 37923 ft 442 kts 191°
2026-05-07 15:42 22.77719 -97.81768 37917 ft 442 kts 191°
2026-05-07 15:42 22.71599 -97.82339 37917 ft 442 kts 191°
2026-05-07 15:43 22.65473 -97.82910 37913 ft 442 kts 191°
2026-05-07 15:43 22.59351 -97.83480 37914 ft 442 kts 191°
2026-05-07 15:44 22.53225 -97.84050 37913 ft 442 kts 190°
2026-05-07 15:44 22.47104 -97.84619 37919 ft 442 kts 190°
2026-05-07 15:45 22.40977 -97.85188 37923 ft 442 kts 190°
2026-05-07 15:45 22.34854 -97.85756 37926 ft 442 kts 190°
2026-05-07 15:46 22.25642 -97.86464 37914 ft 443 kts 188°
2026-05-07 15:47 22.19480 -97.86842 37921 ft 444 kts 188°
2026-05-07 15:47 22.13316 -97.87225 37919 ft 444 kts 188°
2026-05-07 15:48 22.07153 -97.87607 37915 ft 444 kts 188°
2026-05-07 15:48 22.00991 -97.87989 37906 ft 444 kts 188°
2026-05-07 15:49 21.94869 -97.88369 37898 ft 443 kts 188°
2026-05-07 15:49 21.88702 -97.88750 37899 ft 444 kts 188°
2026-05-07 15:50 21.82529 -97.89133 37894 ft 444 kts 188°
2026-05-07 15:50 21.76359 -97.89514 37895 ft 444 kts 188°
2026-05-07 15:51 21.70186 -97.89895 37896 ft 444 kts 188°
2026-05-07 15:51 21.64013 -97.90276 37894 ft 444 kts 188°
2026-05-07 15:52 21.57833 -97.90657 37883 ft 445 kts 188°
2026-05-07 15:52 21.51646 -97.91038 37887 ft 446 kts 188°
2026-05-07 15:53 21.45467 -97.91472 37882 ft 443 kts 193°
2026-05-07 15:53 21.39404 -97.92577 37898 ft 442 kts 194°
2026-05-07 15:54 21.33357 -97.93718 37898 ft 441 kts 194°
2026-05-07 15:54 21.27303 -97.94865 37888 ft 442 kts 194°
2026-05-07 15:55 21.21255 -97.96011 37904 ft 442 kts 194°
2026-05-07 15:55 21.15204 -97.97157 37901 ft 442 kts 194°
2026-05-07 15:56 21.09174 -97.98297 37885 ft 438 kts 194°
2026-05-07 15:56 21.03165 -97.99433 37889 ft 438 kts 194°
2026-05-07 15:57 20.97162 -98.00567 37895 ft 438 kts 194°
2026-05-07 15:57 20.91148 -98.01701 37896 ft 440 kts 194°
2026-05-07 15:58 20.85112 -98.02840 37886 ft 440 kts 194°
2026-05-07 15:58 20.79079 -98.03976 37899 ft 440 kts 194°
2026-05-07 15:59 20.73049 -98.05111 37913 ft 440 kts 194°
2026-05-07 15:59 20.67014 -98.06246 37924 ft 440 kts 194°
2026-05-07 16:00 20.60984 -98.07380 37911 ft 440 kts 194°
2026-05-07 16:00 20.54934 -98.08516 37937 ft 442 kts 194°
2026-05-07 16:01 20.48870 -98.09654 37949 ft 442 kts 194°
2026-05-07 16:01 20.42815 -98.10789 37954 ft 443 kts 194°
2026-05-07 16:02 20.36783 -98.11918 37205 ft 439 kts 193°
2026-05-07 16:02 20.33783 -98.12479 36123 ft 449 kts 193°
2026-05-07 16:02 20.30687 -98.13058 35295 ft 453 kts 192°
2026-05-07 16:02 20.27587 -98.13638 34649 ft 452 kts 192°
2026-05-07 16:03 20.24485 -98.14218 33927 ft 453 kts 192°
2026-05-07 16:03 20.21370 -98.14800 33019 ft 456 kts 191°
2026-05-07 16:03 20.18238 -98.15386 32185 ft 457 kts 191°
2026-05-07 16:03 20.15105 -98.15972 31392 ft 458 kts 191°
2026-05-07 16:04 20.11953 -98.16560 30569 ft 461 kts 191°
2026-05-07 16:04 20.08855 -98.17373 29901 ft 457 kts 202°
2026-05-07 16:04 20.06075 -98.18952 29540 ft 454 kts 216°
2026-05-07 16:04 20.03720 -98.21203 29456 ft 457 kts 229°
2026-05-07 16:05 20.01838 -98.23943 29446 ft 463 kts 239°
2026-05-07 16:05 20.00566 -98.27098 29383 ft 468 kts 252°
2026-05-07 16:05 19.99733 -98.30449 29227 ft 470 kts 254°
2026-05-07 16:05 19.98964 -98.33830 28978 ft 471 kts 255°
2026-05-07 16:06 19.98238 -98.37232 28817 ft 473 kts 256°
2026-05-07 16:06 19.97531 -98.40648 28663 ft 473 kts 256°
2026-05-07 16:06 19.96838 -98.44069 28493 ft 473 kts 256°
2026-05-07 16:06 19.96153 -98.47477 28323 ft 472 kts 256°
2026-05-07 16:07 19.95469 -98.50886 28170 ft 471 kts 256°
2026-05-07 16:07 19.94787 -98.54284 27994 ft 470 kts 256°
2026-05-07 16:07 19.94105 -98.57681 27828 ft 469 kts 256°
2026-05-07 16:07 19.93424 -98.61067 27670 ft 468 kts 256°
2026-05-07 16:08 19.92744 -98.64447 27493 ft 467 kts 256°
2026-05-07 16:08 19.92064 -98.67819 27328 ft 467 kts 256°
2026-05-07 16:08 19.91384 -98.71190 27197 ft 466 kts 256°
2026-05-07 16:08 19.90794 -98.74573 26918 ft 466 kts 262°
2026-05-07 16:09 19.90439 -98.77982 26386 ft 462 kts 261°
2026-05-07 16:09 19.90059 -98.81362 25895 ft 459 kts 261°
2026-05-07 16:09 19.89666 -98.84711 25391 ft 455 kts 261°
2026-05-07 16:09 19.89268 -98.88027 24895 ft 450 kts 261°
2026-05-07 16:10 19.89072 -98.91330 24331 ft 450 kts 271°
2026-05-07 16:10 19.89333 -98.94630 23829 ft 446 kts 272°
2026-05-07 16:10 19.89554 -98.97898 23245 ft 438 kts 271°
2026-05-07 16:10 19.89767 -99.01062 22744 ft 421 kts 271°
2026-05-07 16:11 19.89969 -99.04075 22258 ft 407 kts 271°
2026-05-07 16:11 19.90168 -99.07027 21755 ft 395 kts 271°
2026-05-07 16:11 19.90359 -99.09889 21284 ft 383 kts 271°
2026-05-07 16:11 19.90544 -99.12672 20819 ft 372 kts 271°
2026-05-07 16:12 19.90724 -99.15376 20359 ft 362 kts 270°
2026-05-07 16:12 19.90899 -99.18014 19911 ft 353 kts 270°
2026-05-07 16:12 19.91070 -99.20584 19473 ft 345 kts 270°
2026-05-07 16:12 19.91237 -99.23094 19028 ft 337 kts 270°
2026-05-07 16:13 19.91400 -99.25579 18386 ft 337 kts 270°
2026-05-07 16:13 19.91560 -99.28050 17830 ft 332 kts 268°
2026-05-07 16:13 19.91294 -99.30377 17789 ft 311 kts 251°
2026-05-07 16:13 19.90751 -99.32590 17676 ft 308 kts 252°
2026-05-07 16:14 19.90224 -99.34800 17656 ft 308 kts 252°
2026-05-07 16:14 19.89689 -99.37007 17643 ft 308 kts 252°
2026-05-07 16:14 19.89152 -99.39213 17650 ft 308 kts 252°
2026-05-07 16:14 19.88612 -99.41416 17636 ft 308 kts 252°
2026-05-07 16:15 19.88069 -99.43620 17645 ft 309 kts 250°
2026-05-07 16:15 19.87175 -99.45643 17617 ft 299 kts 228°
2026-05-07 16:15 19.85783 -99.47278 17647 ft 300 kts 225°
2026-05-07 16:15 19.84372 -99.48917 17633 ft 301 kts 224°
2026-05-07 16:16 19.82948 -99.50544 17633 ft 301 kts 224°
2026-05-07 16:16 19.81501 -99.52153 17588 ft 301 kts 220°
2026-05-07 16:16 19.79762 -99.53322 17335 ft 293 kts 197°
2026-05-07 16:16 19.77785 -99.53679 17166 ft 289 kts 176°
2026-05-07 16:17 19.75822 -99.53260 16935 ft 289 kts 157°
2026-05-07 16:17 19.74118 -99.52152 16697 ft 289 kts 138°
2026-05-07 16:17 19.72821 -99.50515 16458 ft 291 kts 127°
2026-05-07 16:17 19.71658 -99.48759 16210 ft 291 kts 125°
2026-05-07 16:18 19.70532 -99.46981 15966 ft 290 kts 124°
2026-05-07 16:18 19.69436 -99.45198 15723 ft 287 kts 123°
2026-05-07 16:18 19.68354 -99.43411 15487 ft 288 kts 123°
2026-05-07 16:18 19.67279 -99.41618 15242 ft 288 kts 123°
2026-05-07 16:19 19.66569 -99.40427 15096 ft 288 kts 123°
2026-05-07 16:19 19.65503 -99.38632 14855 ft 288 kts 122°
2026-05-07 16:19 19.64437 -99.36835 14631 ft 287 kts 122°
2026-05-07 16:19 19.63383 -99.35056 14419 ft 283 kts 122°
2026-05-07 16:20 19.62341 -99.33297 14208 ft 280 kts 122°
2026-05-07 16:20 19.61325 -99.31581 13987 ft 270 kts 121°
2026-05-07 16:20 19.60346 -99.29933 13791 ft 260 kts 123°
2026-05-07 16:20 19.59119 -99.28541 13600 ft 259 kts 143°
2026-05-07 16:21 19.57679 -99.27423 13384 ft 254 kts 142°
2026-05-07 16:21 19.56278 -99.26319 13073 ft 249 kts 142°
2026-05-07 16:21 19.54904 -99.25241 12773 ft 242 kts 142°
2026-05-07 16:21 19.53544 -99.24228 12487 ft 236 kts 151°
2026-05-07 16:22 19.51982 -99.23838 12135 ft 232 kts 182°
2026-05-07 16:22 19.50414 -99.24091 11871 ft 225 kts 189°
2026-05-07 16:22 19.48865 -99.24386 11666 ft 228 kts 190°
2026-05-07 16:22 19.47299 -99.24695 11456 ft 230 kts 190°
2026-05-07 16:23 19.45756 -99.25006 11240 ft 228 kts 191°
2026-05-07 16:23 19.44182 -99.25325 10977 ft 227 kts 189°
2026-05-07 16:23 19.42637 -99.25229 10565 ft 229 kts 158°
2026-05-07 16:23 19.41271 -99.24495 10406 ft 214 kts 148°
2026-05-07 16:24 19.39971 -99.23696 10058 ft 217 kts 148°
2026-05-07 16:24 19.38698 -99.22903 9799 ft 206 kts 148°
2026-05-07 16:24 19.37523 -99.22125 9690 ft 198 kts 139°
2026-05-07 16:24 19.36747 -99.20978 9492 ft 190 kts 103°
2026-05-07 16:25 19.36758 -99.19640 9459 ft 182 kts 68°
2026-05-07 16:25 19.37328 -99.18444 9458 ft 183 kts 58°
2026-05-07 16:25 19.37937 -99.17268 9347 ft 180 kts 59°
2026-05-07 16:25 19.38540 -99.16125 9232 ft 173 kts 58°
2026-05-07 16:26 19.39125 -99.15038 9133 ft 169 kts 58°
2026-05-07 16:26 19.39707 -99.13971 8952 ft 166 kts 59°
2026-05-07 16:26 19.40283 -99.12917 8684 ft 165 kts 59°
2026-05-07 16:26 19.40856 -99.11879 8384 ft 162 kts 59°
2026-05-07 16:27 19.41431 -99.10844 8000 ft 162 kts 58°
2026-05-07 16:27 19.41995 -99.09828 7753 ft 159 kts 58°
2026-05-07 16:27 19.42562 -99.08835 7464 ft 157 kts 60°
2026-05-07 16:27 19.43112 -99.07848 7322 ft 153 kts 59°
2026-05-07 16:28 19.43595 -99.06992 7305 ft 105 kts 59°
2026-05-07 16:28 19.43868 -99.06501 7305 ft 56 kts 59°
2026-05-07 16:28 19.43955 -99.06307 7304 ft 18 kts 76°
2026-05-07 16:28 19.43967 -99.06188 7305 ft 14 kts 89°
2026-05-07 16:29 19.43967 -99.06110 7305 ft 9 kts 98°
2026-05-07 16:29 19.43924 -99.06085 7305 ft 8 kts 202°
2026-05-07 16:29 19.43886 -99.06129 7305 ft 8 kts 239°
2026-05-07 16:29 19.43854 -99.06187 7305 ft 10 kts 240°
2026-05-07 16:30 19.43814 -99.06260 7305 ft 13 kts 239°
2026-05-07 16:30 19.43760 -99.06355 7305 ft 17 kts 239°
2026-05-07 16:30 19.43695 -99.06473 7305 ft 20 kts 239°
2026-05-07 16:30 19.43633 -99.06585 7305 ft 14 kts 239°
2026-05-07 16:31 19.43596 -99.06651 7305 ft 8 kts 239°
2026-05-07 16:31 19.43550 -99.06701 7305 ft 10 kts 214°
2026-05-07 16:31 19.43481 -99.06742 7305 ft 13 kts 208°
2026-05-07 16:31 19.43419 -99.06817 7305 ft 12 kts 251°
2026-05-07 16:32 19.43386 -99.06891 7305 ft 10 kts 241°
2026-05-07 16:32 19.43342 -99.06971 7305 ft 14 kts 238°
2026-05-07 16:32 19.43291 -99.07059 7305 ft 13 kts 239°
2026-05-07 16:32 19.43265 -99.07138 7305 ft 12 kts 263°
2026-05-07 16:33 19.43255 -99.07228 7305 ft 12 kts 257°
2026-05-07 16:33 19.43222 -99.07306 7305 ft 12 kts 241°
2026-05-07 16:33 19.43179 -99.07382 7305 ft 12 kts 238°
2026-05-07 16:33 19.43133 -99.07463 7305 ft 13 kts 239°
2026-05-07 16:34 19.43084 -99.07549 7305 ft 14 kts 239°
2026-05-07 16:34 19.43033 -99.07638 7305 ft 14 kts 238°
2026-05-07 16:34 19.42979 -99.07730 7305 ft 15 kts 232°
2026-05-07 16:34 19.42903 -99.07810 7305 ft 16 kts 215°
2026-05-07 16:35 19.42809 -99.07868 7305 ft 16 kts 211°
2026-05-07 16:35 19.42741 -99.07949 7305 ft 12 kts 237°
2026-05-07 16:35 19.42697 -99.08026 7305 ft 13 kts 238°
2026-05-07 16:35 19.42653 -99.08105 7305 ft 10 kts 238°
2026-05-07 16:36 19.42603 -99.08142 7305 ft 9 kts 178°
2026-05-07 16:36 19.42546 -99.08114 7305 ft 10 kts 149°
2026-05-07 16:36 19.42485 -99.08076 7305 ft 10 kts 150°
2026-05-07 16:36 19.42433 -99.08044 7305 ft 7 kts 149°
2026-05-07 16:37 19.42395 -99.08020 7305 ft 7 kts 148°
2026-05-07 16:37 19.42359 -99.07986 7305 ft 7 kts 132°
2026-05-07 16:37 19.42339 -99.07942 7305 ft 6 kts 90°
2026-05-07 16:37 19.42353 -99.07906 7305 ft 6 kts 62°
2026-05-07 16:38 19.42365 -99.07883 7305 ft 2 kts 59°
2026-05-07 16:38 19.42370 -99.07875 7305 ft 1 kts 59°
2026-05-07 16:38 19.42370 -99.07874 7305 ft 0 kts 59°